Time,TemperatureF,DewpointF,PressureIn,WindDirection,WindDirectionDegrees,WindSpeedMPH,WindSpeedGustMPH,Humidity,HourlyPrecipIn,Conditions,Clouds,dailyrainin,SoftwareType,DateUTC
2013-06-12 00:00:00,69.3,22.6,30.69,NW,315,3.0,7.0,17,0.00,,,0.00,meteohub,2013-06-12 06:00:00,
2013-06-12 00:05:00,69.3,22.6,30.69,NW,315,3.0,7.0,17,0.00,,,0.00,meteohub,2013-06-12 06:05:00,
2013-06-12 00:11:00,71.6,21.6,30.69,East,90,2.0,6.0,15,0.00,,,0.00,meteohub,2013-06-12 06:11:00,
2013-06-12 00:16:00,72.0,21.7,30.69,NW,315,2.0,4.0,15,0.00,,,0.00,meteohub,2013-06-12 06:16:00,
2013-06-12 00:21:00,72.1,20.3,30.69,South,180,1.0,4.0,14,0.00,,,0.00,meteohub,2013-06-12 06:21:00,
2013-06-12 00:26:00,71.6,21.6,30.69,SW,225,1.0,4.0,15,0.00,,,0.00,meteohub,2013-06-12 06:26:00,
2013-06-12 00:31:00,70.2,21.9,30.69,West,270,1.0,4.0,16,0.00,,,0.00,meteohub,2013-06-12 06:31:00,
2013-06-12 00:36:00,68.5,23.4,30.69,West,270,2.0,3.0,18,0.00,,,0.00,meteohub,2013-06-12 06:36:00,
2013-06-12 00:41:00,66.4,26.4,30.69,SW,225,2.0,3.0,22,0.00,,,0.00,meteohub,2013-06-12 06:41:00,
2013-06-12 00:46:00,64.0,25.5,30.69,SW,225,1.0,2.0,23,0.00,,,0.00,meteohub,2013-06-12 06:46:00,
2013-06-12 00:52:00,62.4,25.2,30.69,West,270,2.0,2.0,24,0.00,,,0.00,meteohub,2013-06-12 06:52:00,
2013-06-12 00:57:00,61.0,25.0,30.69,SW,225,2.0,3.0,25,0.00,,,0.00,meteohub,2013-06-12 06:57:00,
2013-06-12 01:02:00,60.3,26.1,30.69,West,270,2.0,3.0,27,0.00,,,0.00,meteohub,2013-06-12 07:02:00,
2013-06-12 01:07:00,59.4,26.2,30.69,SW,225,1.0,3.0,28,0.00,,,0.00,meteohub,2013-06-12 07:07:00,
2013-06-12 01:12:00,58.3,27.0,30.69,West,270,1.0,2.0,30,0.00,,,0.00,meteohub,2013-06-12 07:12:00,
2013-06-12 01:17:00,57.6,28.6,30.69,SW,225,2.0,2.0,33,0.00,,,0.00,meteohub,2013-06-12 07:17:00,
2013-06-12 01:22:00,56.7,29.3,30.69,West,270,2.0,2.0,35,0.00,,,0.00,meteohub,2013-06-12 07:22:00,
2013-06-12 01:28:00,56.1,28.8,30.69,West,270,2.0,2.0,35,0.00,,,0.00,meteohub,2013-06-12 07:28:00,
2013-06-12 01:33:00,55.8,28.6,30.69,West,270,1.0,2.0,35,0.00,,,0.00,meteohub,2013-06-12 07:33:00,
2013-06-12 01:38:00,56.1,25.9,30.69,North,0,2.0,2.0,31,0.00,,,0.00,meteohub,2013-06-12 07:38:00,
2013-06-12 01:43:00,55.9,27.3,30.69,SW,225,1.0,2.0,33,0.00,,,0.00,meteohub,2013-06-12 07:43:00,
2013-06-12 01:48:00,55.8,28.6,30.69,West,270,2.0,2.0,35,0.00,,,0.00,meteohub,2013-06-12 07:48:00,
2013-06-12 01:53:00,55.2,27.3,30.70,West,270,2.0,2.0,34,0.00,,,0.00,meteohub,2013-06-12 07:53:00,
2013-06-12 01:58:00,54.9,28.4,30.69,SW,225,0.0,2.0,36,0.00,,,0.00,meteohub,2013-06-12 07:58:00,
2013-06-12 02:03:00,54.7,28.2,30.70,SW,225,1.0,2.0,36,0.00,,,0.00,meteohub,2013-06-12 08:03:00,
2013-06-12 02:09:00,53.6,27.3,30.70,West,270,2.0,2.0,36,0.00,,,0.00,meteohub,2013-06-12 08:09:00,
2013-06-12 02:14:00,53.8,26.8,30.70,SW,225,2.0,4.0,35,0.00,,,0.00,meteohub,2013-06-12 08:14:00,
2013-06-12 02:19:00,53.6,25.9,30.70,West,270,1.0,4.0,34,0.00,,,0.00,meteohub,2013-06-12 08:19:00,
2013-06-12 02:24:00,54.0,27.0,30.70,South,180,1.0,4.0,35,0.00,,,0.00,meteohub,2013-06-12 08:24:00,
2013-06-12 02:29:00,53.6,27.3,30.70,West,270,2.0,4.0,36,0.00,,,0.00,meteohub,2013-06-12 08:29:00,
2013-06-12 02:34:00,53.1,29.3,30.70,SW,225,2.0,4.0,40,0.00,,,0.00,meteohub,2013-06-12 08:34:00,
2013-06-12 02:39:00,52.3,28.0,30.71,West,270,1.0,2.0,39,0.00,,,0.00,meteohub,2013-06-12 08:39:00,
2013-06-12 02:44:00,51.8,27.7,30.71,SW,225,0.0,2.0,39,0.00,,,0.00,meteohub,2013-06-12 08:44:00,
2013-06-12 02:50:00,51.4,28.6,30.70,SW,225,2.0,2.0,41,0.00,,,0.00,meteohub,2013-06-12 08:50:00,
2013-06-12 02:55:00,51.6,27.5,30.71,NE,45,2.0,2.0,39,0.00,,,0.00,meteohub,2013-06-12 08:55:00,
2013-06-12 03:00:00,51.4,28.6,30.71,SW,225,2.0,2.0,41,0.00,,,0.00,meteohub,2013-06-12 09:00:00,
2013-06-12 03:05:00,51.4,29.7,30.71,SW,225,2.0,2.0,43,0.00,,,0.00,meteohub,2013-06-12 09:05:00,
2013-06-12 03:10:00,50.9,28.6,30.71,SW,225,2.0,2.0,42,0.00,,,0.00,meteohub,2013-06-12 09:10:00,
2013-06-12 03:15:00,51.1,27.0,30.72,NE,45,3.0,4.0,39,0.00,,,0.00,meteohub,2013-06-12 09:15:00,
2013-06-12 03:21:00,51.1,28.2,30.73,SW,225,2.0,4.0,41,0.00,,,0.00,meteohub,2013-06-12 09:21:00,
2013-06-12 03:27:00,50.9,27.5,30.73,East,90,2.0,4.0,40,0.00,,,0.00,meteohub,2013-06-12 09:27:00,
2013-06-12 03:32:00,50.2,29.7,30.74,SW,225,2.0,3.0,45,0.00,,,0.00,meteohub,2013-06-12 09:32:00,
2013-06-12 03:37:00,50.0,28.9,30.74,SW,225,0.0,3.0,44,0.00,,,0.00,meteohub,2013-06-12 09:37:00,
2013-06-12 03:43:00,49.3,29.3,30.74,SW,225,1.0,3.0,46,0.00,,,0.00,meteohub,2013-06-12 09:43:00,
2013-06-12 03:48:00,48.9,29.1,30.74,West,270,2.0,3.0,46,0.00,,,0.00,meteohub,2013-06-12 09:48:00,
2013-06-12 03:53:00,48.4,28.6,30.74,SW,225,2.0,2.0,46,0.00,,,0.00,meteohub,2013-06-12 09:53:00,
2013-06-12 03:58:00,48.0,29.3,30.74,SW,225,0.0,2.0,48,0.00,,,0.00,meteohub,2013-06-12 09:58:00,
2013-06-12 04:03:00,47.8,29.1,30.74,SW,225,0.0,2.0,48,0.00,,,0.00,meteohub,2013-06-12 10:03:00,
2013-06-12 04:08:00,47.5,29.3,30.74,West,270,0.0,2.0,49,0.00,,,0.00,meteohub,2013-06-12 10:08:00,
2013-06-12 04:13:00,46.9,29.3,30.75,West,270,0.0,1.0,50,0.00,,,0.00,meteohub,2013-06-12 10:13:00,
2013-06-12 04:18:00,46.8,28.6,30.75,South,180,0.0,1.0,49,0.00,,,0.00,meteohub,2013-06-12 10:18:00,
2013-06-12 04:23:00,46.4,28.8,30.76,West,270,0.0,2.0,50,0.00,,,0.00,meteohub,2013-06-12 10:23:00,
2013-06-12 04:28:00,46.0,28.9,30.76,West,270,2.0,2.0,51,0.00,,,0.00,meteohub,2013-06-12 10:28:00,
2013-06-12 04:34:00,45.7,29.1,30.76,SW,225,1.0,2.0,52,0.00,,,0.00,meteohub,2013-06-12 10:34:00,
2013-06-12 04:39:00,45.3,28.2,30.76,SW,225,2.0,2.0,51,0.00,,,0.00,meteohub,2013-06-12 10:39:00,
2013-06-12 04:44:00,45.5,27.9,30.76,South,180,2.0,2.0,50,0.00,,,0.00,meteohub,2013-06-12 10:44:00,
2013-06-12 04:49:00,45.3,28.8,30.77,West,270,0.0,2.0,52,0.00,,,0.00,meteohub,2013-06-12 10:49:00,
2013-06-12 04:54:00,45.1,28.6,30.76,SW,225,2.0,2.0,52,0.00,,,0.00,meteohub,2013-06-12 10:54:00,
2013-06-12 04:59:00,45.0,27.9,30.76,West,270,0.0,2.0,51,0.00,,,0.00,meteohub,2013-06-12 10:59:00,
2013-06-12 05:04:00,44.8,28.8,30.77,West,270,2.0,2.0,53,0.00,,,0.00,meteohub,2013-06-12 11:04:00,
2013-06-12 05:09:00,45.0,28.4,30.77,SW,225,2.0,2.0,52,0.00,,,0.00,meteohub,2013-06-12 11:09:00,
2013-06-12 05:15:00,45.0,27.9,30.77,East,90,1.0,2.0,51,0.00,,,0.00,meteohub,2013-06-12 11:15:00,
2013-06-12 05:20:00,44.6,28.0,30.77,West,270,1.0,2.0,52,0.00,,,0.00,meteohub,2013-06-12 11:20:00,
2013-06-12 05:25:00,44.2,28.2,30.77,SW,225,1.0,2.0,53,0.00,,,0.00,meteohub,2013-06-12 11:25:00,
2013-06-12 05:30:00,44.1,28.0,30.77,SW,225,0.0,2.0,53,0.00,,,0.00,meteohub,2013-06-12 11:30:00,
2013-06-12 05:35:00,43.7,28.6,30.77,SW,225,0.0,2.0,55,0.00,,,0.00,meteohub,2013-06-12 11:35:00,
2013-06-12 05:40:00,43.3,28.8,30.78,SW,225,0.0,1.0,56,0.00,,,0.00,meteohub,2013-06-12 11:40:00,
2013-06-12 05:45:00,43.2,28.6,30.77,SW,225,1.0,0.0,56,0.00,,,0.00,meteohub,2013-06-12 11:45:00,
2013-06-12 05:50:00,43.2,28.6,30.78,SW,225,1.0,2.0,56,0.00,,,0.00,meteohub,2013-06-12 11:50:00,
2013-06-12 05:56:00,43.0,28.4,30.78,SW,225,0.0,2.0,56,0.00,,,0.00,meteohub,2013-06-12 11:56:00,
2013-06-12 06:01:00,43.0,27.9,30.79,SW,225,0.0,2.0,55,0.00,,,0.00,meteohub,2013-06-12 12:01:00,
2013-06-12 06:06:00,43.0,27.9,30.79,SW,225,0.0,2.0,55,0.00,,,0.00,meteohub,2013-06-12 12:06:00,
2013-06-12 06:11:00,42.8,28.2,30.79,SW,225,0.0,2.0,56,0.00,,,0.00,meteohub,2013-06-12 12:11:00,
2013-06-12 06:16:00,42.8,29.1,30.79,SW,225,0.0,1.0,58,0.00,,,0.00,meteohub,2013-06-12 12:16:00,
2013-06-12 06:21:00,42.8,29.8,30.79,SW,225,0.0,1.0,60,0.00,,,0.00,meteohub,2013-06-12 12:21:00,
2013-06-12 06:26:00,43.0,30.4,30.79,SW,225,0.0,1.0,61,0.00,,,0.00,meteohub,2013-06-12 12:26:00,
2013-06-12 06:31:00,43.2,31.1,30.79,SW,225,0.0,1.0,62,0.00,,,0.00,meteohub,2013-06-12 12:31:00,
2013-06-12 06:36:00,43.5,31.3,30.79,SW,225,0.0,1.0,62,0.00,,,0.00,meteohub,2013-06-12 12:36:00,
2013-06-12 06:42:00,44.1,31.8,30.80,SW,225,0.0,0.0,62,0.00,,,0.00,meteohub,2013-06-12 12:42:00,
2013-06-12 06:47:00,44.4,32.2,30.80,SW,225,2.0,0.0,62,0.00,,,0.00,meteohub,2013-06-12 12:47:00,
2013-06-12 06:52:00,45.0,31.5,30.80,SW,225,0.0,2.0,59,0.00,,,0.00,meteohub,2013-06-12 12:52:00,
2013-06-12 06:57:00,45.3,31.8,30.80,SW,225,0.0,2.0,59,0.00,,,0.00,meteohub,2013-06-12 12:57:00,
2013-06-12 07:02:00,45.3,32.7,30.80,SW,225,1.0,2.0,61,0.00,,,0.00,meteohub,2013-06-12 13:02:00,
2013-06-12 07:07:00,45.5,32.9,30.80,SW,225,0.0,1.0,61,0.00,,,0.00,meteohub,2013-06-12 13:07:00,
2013-06-12 07:12:00,45.7,33.4,30.80,SW,225,1.0,1.0,62,0.00,,,0.00,meteohub,2013-06-12 13:12:00,
2013-06-12 07:17:00,46.0,31.6,30.80,East,90,2.0,2.0,57,0.00,,,0.00,meteohub,2013-06-12 13:17:00,
2013-06-12 07:22:00,46.8,33.3,30.79,SW,225,0.0,2.0,59,0.00,,,0.00,meteohub,2013-06-12 13:22:00,
2013-06-12 07:28:00,47.5,33.8,30.80,SW,225,0.0,2.0,59,0.00,,,0.00,meteohub,2013-06-12 13:28:00,
2013-06-12 07:33:00,48.7,33.8,30.79,SW,225,0.0,2.0,56,0.00,,,0.00,meteohub,2013-06-12 13:33:00,
2013-06-12 07:38:00,50.4,34.3,30.79,SW,225,0.0,0.0,54,0.00,,,0.00,meteohub,2013-06-12 13:38:00,
2013-06-12 07:43:00,52.5,35.4,30.80,SW,225,0.0,0.0,52,0.00,,,0.00,meteohub,2013-06-12 13:43:00,
2013-06-12 07:48:00,55.6,37.2,30.79,SE,135,0.0,1.0,50,0.00,,,0.00,meteohub,2013-06-12 13:48:00,
2013-06-12 07:53:00,58.1,36.3,30.79,South,180,2.0,2.0,44,0.00,,,0.00,meteohub,2013-06-12 13:53:00,
2013-06-12 07:58:00,59.9,34.2,30.79,South,180,1.0,2.0,38,0.00,,,0.00,meteohub,2013-06-12 13:58:00,
2013-06-12 08:03:00,60.1,34.3,30.79,South,180,1.0,2.0,38,0.00,,,0.00,meteohub,2013-06-12 14:03:00,
2013-06-12 08:08:00,61.7,34.5,30.79,East,90,2.0,2.0,36,0.00,,,0.00,meteohub,2013-06-12 14:08:00,
2013-06-12 08:14:00,63.0,31.8,30.79,South,180,2.0,2.0,31,0.00,,,0.00,meteohub,2013-06-12 14:14:00,
2013-06-12 08:19:00,64.4,37.6,30.79,South,180,2.0,2.0,37,0.00,,,0.00,meteohub,2013-06-12 14:19:00,
2013-06-12 08:24:00,65.7,37.2,30.79,South,180,2.0,2.0,35,0.00,,,0.00,meteohub,2013-06-12 14:24:00,
2013-06-12 08:29:00,66.7,37.4,30.79,SE,135,2.0,2.0,34,0.00,,,0.00,meteohub,2013-06-12 14:29:00,
2013-06-12 08:34:00,67.6,36.7,30.79,SW,225,4.0,4.0,32,0.00,,,0.00,meteohub,2013-06-12 14:34:00,
2013-06-12 08:39:00,68.2,37.9,30.79,SW,225,3.0,4.0,33,0.00,,,0.00,meteohub,2013-06-12 14:39:00,
2013-06-12 08:44:00,69.3,33.8,30.79,East,90,4.0,4.0,27,0.00,,,0.00,meteohub,2013-06-12 14:44:00,
2013-06-12 08:49:00,69.8,29.3,30.79,South,180,2.0,4.0,22,0.00,,,0.00,meteohub,2013-06-12 14:49:00,
2013-06-12 08:54:00,70.0,29.3,30.79,South,180,1.0,4.0,22,0.00,,,0.00,meteohub,2013-06-12 14:54:00,
2013-06-12 09:00:00,70.3,33.8,30.79,SE,135,2.0,4.0,26,0.00,,,0.00,meteohub,2013-06-12 15:00:00,
2013-06-12 09:05:00,70.7,33.1,30.79,SE,135,2.0,3.0,25,0.00,,,0.00,meteohub,2013-06-12 15:05:00,
2013-06-12 09:10:00,72.0,32.2,30.78,SE,135,1.0,3.0,23,0.00,,,0.00,meteohub,2013-06-12 15:10:00,
2013-06-12 09:15:00,73.4,35.4,30.78,South,180,1.0,2.0,25,0.00,,,0.00,meteohub,2013-06-12 15:15:00,
2013-06-12 09:20:00,74.5,36.3,30.78,SW,225,1.0,2.0,25,0.00,,,0.00,meteohub,2013-06-12 15:20:00,
2013-06-12 09:25:00,75.6,32.9,30.78,NE,45,4.0,4.0,21,0.00,,,0.00,meteohub,2013-06-12 15:25:00,
2013-06-12 09:30:00,75.6,31.6,30.78,NE,45,2.0,4.0,20,0.00,,,0.00,meteohub,2013-06-12 15:30:00,
2013-06-12 09:35:00,75.9,32.0,30.78,North,0,1.0,4.0,20,0.00,,,0.00,meteohub,2013-06-12 15:35:00,
2013-06-12 09:40:00,77.0,31.6,30.78,East,90,3.0,4.0,19,0.00,,,0.00,meteohub,2013-06-12 15:40:00,
2013-06-12 09:46:00,77.7,30.9,30.78,East,90,2.0,4.0,18,0.00,,,0.00,meteohub,2013-06-12 15:46:00,
2013-06-12 09:51:00,78.4,34.0,30.78,NE,45,3.0,4.0,20,0.00,,,0.00,meteohub,2013-06-12 15:51:00,
2013-06-12 09:56:00,79.3,27.7,30.77,West,270,4.0,4.0,15,0.00,,,0.00,meteohub,2013-06-12 15:56:00,
2013-06-12 10:02:00,79.5,27.9,30.77,South,180,1.0,4.0,15,0.00,,,0.00,meteohub,2013-06-12 16:02:00,
2013-06-12 10:07:00,79.5,27.9,30.77,South,180,1.0,4.0,15,0.00,,,0.00,meteohub,2013-06-12 16:07:00,
2013-06-12 10:12:00,80.6,27.0,30.77,NW,315,2.0,4.0,14,0.00,,,0.00,meteohub,2013-06-12 16:12:00,
2013-06-12 10:17:00,80.4,28.6,30.77,South,180,2.0,6.0,15,0.00,,,0.00,meteohub,2013-06-12 16:17:00,
2013-06-12 10:22:00,81.0,27.3,30.77,North,0,7.0,7.0,14,0.00,,,0.00,meteohub,2013-06-12 16:22:00,
2013-06-12 10:27:00,80.8,25.3,30.77,NE,45,7.0,8.0,13,0.00,,,0.00,meteohub,2013-06-12 16:27:00,
2013-06-12 10:32:00,80.4,26.8,30.77,NE,45,7.0,8.0,14,0.00,,,0.00,meteohub,2013-06-12 16:32:00,
2013-06-12 10:37:00,80.4,28.6,30.77,North,0,8.0,9.0,15,0.00,,,0.00,meteohub,2013-06-12 16:37:00,
2013-06-12 10:42:00,80.8,27.1,30.77,NE,45,8.0,9.0,14,0.00,,,0.00,meteohub,2013-06-12 16:42:00,
2013-06-12 10:47:00,81.0,27.3,30.76,NE,45,8.0,9.0,14,0.00,,,0.00,meteohub,2013-06-12 16:47:00,
2013-06-12 10:52:00,81.3,27.5,30.76,North,0,10.0,10.0,14,0.00,,,0.00,meteohub,2013-06-12 16:52:00,
2013-06-12 10:57:00,81.7,27.9,30.76,NE,45,9.0,11.0,14,0.00,,,0.00,meteohub,2013-06-12 16:57:00,
2013-06-12 11:03:00,81.9,26.2,30.76,NE,45,9.0,11.0,13,0.00,,,0.00,meteohub,2013-06-12 17:03:00,
2013-06-12 11:08:00,82.6,31.8,30.76,SSE,158,4.0,11.0,16,0.00,,,0.00,meteohub,2013-06-12 17:08:00,
2013-06-12 11:13:00,83.5,32.5,30.75,SW,225,4.0,10.0,16,0.00,,,0.00,meteohub,2013-06-12 17:13:00,
2013-06-12 11:18:00,84.0,33.1,30.75,NE,45,9.0,9.0,16,0.00,,,0.00,meteohub,2013-06-12 17:18:00,
2013-06-12 11:23:00,84.0,33.1,30.75,North,0,11.0,11.0,16,0.00,,,0.00,meteohub,2013-06-12 17:23:00,
2013-06-12 11:28:00,83.5,34.2,30.75,NE,45,11.0,11.0,17,0.00,,,0.00,meteohub,2013-06-12 17:28:00,
2013-06-12 11:33:00,83.8,32.9,30.75,NE,45,8.0,15.0,16,0.00,,,0.00,meteohub,2013-06-12 17:33:00,
2013-06-12 11:38:00,84.0,33.1,30.75,NE,45,8.0,15.0,16,0.00,,,0.00,meteohub,2013-06-12 17:38:00,
2013-06-12 11:43:00,84.0,33.1,30.75,North,0,11.0,15.0,16,0.00,,,0.00,meteohub,2013-06-12 17:43:00,
2013-06-12 11:49:00,83.8,32.9,30.75,North,0,11.0,15.0,16,0.00,,,0.00,meteohub,2013-06-12 17:49:00,
2013-06-12 11:54:00,84.0,33.1,30.75,NE,45,8.0,15.0,16,0.00,,,0.00,meteohub,2013-06-12 17:54:00,
2013-06-12 11:59:00,84.0,34.5,30.75,North,0,11.0,15.0,17,0.00,,,0.00,meteohub,2013-06-12 17:59:00,
2013-06-12 12:04:00,84.0,34.5,30.75,East,90,12.0,13.0,17,0.00,,,0.00,meteohub,2013-06-12 18:04:00,
2013-06-12 12:09:00,85.3,32.4,30.74,NE,45,8.0,12.0,15,0.00,,,0.00,meteohub,2013-06-12 18:09:00,
2013-06-12 12:14:00,85.5,34.2,30.74,NE,45,7.0,12.0,16,0.00,,,0.00,meteohub,2013-06-12 18:14:00,
2013-06-12 12:19:00,85.8,32.9,30.74,North,0,7.0,12.0,15,0.00,,,0.00,meteohub,2013-06-12 18:19:00,
2013-06-12 12:24:00,86.4,31.5,30.74,North,0,7.0,12.0,14,0.00,,,0.00,meteohub,2013-06-12 18:24:00,
2013-06-12 12:30:00,86.7,31.8,30.73,NE,45,7.0,12.0,14,0.00,,,0.00,meteohub,2013-06-12 18:30:00,
2013-06-12 12:35:00,86.9,32.0,30.73,NE,45,7.0,10.0,14,0.00,,,0.00,meteohub,2013-06-12 18:35:00,
2013-06-12 12:40:00,87.1,32.2,30.73,NE,45,7.0,10.0,14,0.00,,,0.00,meteohub,2013-06-12 18:40:00,
2013-06-12 12:45:00,86.9,32.0,30.73,North,0,10.0,17.0,14,0.00,,,0.00,meteohub,2013-06-12 18:45:00,
2013-06-12 12:50:00,86.0,31.3,30.72,NE,45,8.0,17.0,14,0.00,,,0.00,meteohub,2013-06-12 18:50:00,
2013-06-12 12:55:00,85.8,32.9,30.72,North,0,8.0,17.0,15,0.00,,,0.00,meteohub,2013-06-12 18:55:00,
2013-06-12 13:01:00,85.5,32.5,30.72,NE,45,8.0,10.0,15,0.00,,,0.00,meteohub,2013-06-12 19:01:00,
2013-06-12 13:06:00,85.5,32.5,30.72,North,0,6.0,9.0,15,0.00,,,0.00,meteohub,2013-06-12 19:06:00,
2013-06-12 13:11:00,86.0,31.3,30.72,WNW,293,4.0,9.0,14,0.00,,,0.00,meteohub,2013-06-12 19:11:00,
2013-06-12 13:16:00,86.0,31.3,30.72,NW,315,2.0,11.0,14,0.00,,,0.00,meteohub,2013-06-12 19:16:00,
2013-06-12 13:21:00,86.0,31.3,30.72,SSE,158,2.0,11.0,14,0.00,,,0.00,meteohub,2013-06-12 19:21:00,
2013-06-12 13:26:00,85.6,32.7,30.72,SE,135,10.0,11.0,15,0.00,,,0.00,meteohub,2013-06-12 19:26:00,
2013-06-12 13:32:00,85.3,32.4,30.72,SW,225,12.0,12.0,15,0.00,,,0.00,meteohub,2013-06-12 19:32:00,
2013-06-12 13:37:00,85.5,32.5,30.72,NE,45,4.0,12.0,15,0.00,,,0.00,meteohub,2013-06-12 19:37:00,
2013-06-12 13:42:00,85.8,32.9,30.71,NE,45,11.0,12.0,15,0.00,,,0.00,meteohub,2013-06-12 19:42:00,
2013-06-12 13:47:00,85.6,32.7,30.72,West,270,2.0,14.0,15,0.00,,,0.00,meteohub,2013-06-12 19:47:00,
2013-06-12 13:52:00,86.2,31.5,30.71,NE,45,11.0,14.0,14,0.00,,,0.00,meteohub,2013-06-12 19:52:00,
2013-06-12 13:57:00,85.8,32.9,30.71,NE,45,11.0,15.0,15,0.00,,,0.00,meteohub,2013-06-12 19:57:00,
2013-06-12 14:02:00,86.2,31.5,30.71,North,0,12.0,15.0,14,0.00,,,0.00,meteohub,2013-06-12 20:02:00,
2013-06-12 14:07:00,86.2,31.5,30.71,North,0,12.0,15.0,14,0.00,,,0.00,meteohub,2013-06-12 20:07:00,
2013-06-12 14:12:00,86.7,31.8,30.70,NE,45,9.0,17.0,14,0.00,,,0.00,meteohub,2013-06-12 20:12:00,
2013-06-12 14:17:00,87.3,32.2,30.70,NW,315,6.0,17.0,14,0.00,,,0.00,meteohub,2013-06-12 20:17:00,
2013-06-12 14:23:00,88.2,31.1,30.70,SSW,203,8.0,17.0,13,0.00,,,0.00,meteohub,2013-06-12 20:23:00,
2013-06-12 14:28:00,88.7,31.5,30.70,NW,315,6.0,12.0,13,0.00,,,0.00,meteohub,2013-06-12 20:28:00,
2013-06-12 14:33:00,88.7,31.5,30.70,NE,45,11.0,11.0,13,0.00,,,0.00,meteohub,2013-06-12 20:33:00,
2013-06-12 14:38:00,87.8,30.9,30.70,NE,45,7.0,16.0,13,0.00,,,0.00,meteohub,2013-06-12 20:38:00,
2013-06-12 14:43:00,87.6,32.5,30.69,North,0,11.0,16.0,14,0.00,,,0.00,meteohub,2013-06-12 20:43:00,
2013-06-12 14:49:00,88.0,30.9,30.70,North,0,12.0,13.0,13,0.00,,,0.00,meteohub,2013-06-12 20:49:00,
2013-06-12 14:54:00,88.0,30.9,30.69,North,0,12.0,12.0,13,0.00,,,0.00,meteohub,2013-06-12 20:54:00,
2013-06-12 14:59:00,88.5,31.5,30.69,NE,45,6.0,17.0,13,0.00,,,0.00,meteohub,2013-06-12 20:59:00,
2013-06-12 15:04:00,89.1,31.8,30.69,NE,45,8.0,17.0,13,0.00,,,0.00,meteohub,2013-06-12 21:04:00,
2013-06-12 15:09:00,89.6,30.2,30.69,NE,45,4.0,17.0,12,0.00,,,0.00,meteohub,2013-06-12 21:09:00,
2013-06-12 15:14:00,89.6,30.2,30.69,North,0,9.0,15.0,12,0.00,,,0.00,meteohub,2013-06-12 21:14:00,
2013-06-12 15:20:00,89.6,30.2,30.68,North,0,11.0,11.0,12,0.00,,,0.00,meteohub,2013-06-12 21:20:00,
2013-06-12 15:25:00,89.2,32.0,30.68,North,0,5.0,11.0,13,0.00,,,0.00,meteohub,2013-06-12 21:25:00,
2013-06-12 15:30:00,89.6,30.2,30.68,NE,45,12.0,12.0,12,0.00,,,0.00,meteohub,2013-06-12 21:30:00,
2013-06-12 15:36:00,88.9,31.6,30.67,NE,45,12.0,14.0,13,0.00,,,0.00,meteohub,2013-06-12 21:36:00,
2013-06-12 15:41:00,88.9,31.6,30.67,SW,225,12.0,15.0,13,0.00,,,0.00,meteohub,2013-06-12 21:41:00,
2013-06-12 15:47:00,89.2,32.0,30.67,ENE,68,9.0,15.0,13,0.00,,,0.00,meteohub,2013-06-12 21:47:00,
2013-06-12 15:52:00,89.2,32.0,30.67,West,270,6.0,15.0,13,0.00,,,0.00,meteohub,2013-06-12 21:52:00,
2013-06-12 15:57:00,89.6,30.2,30.67,North,0,14.0,15.0,12,0.00,,,0.00,meteohub,2013-06-12 21:57:00,
2013-06-12 16:02:00,89.6,30.2,30.67,SW,225,11.0,14.0,12,0.00,,,0.00,meteohub,2013-06-12 22:02:00,
2013-06-12 16:07:00,90.3,30.7,30.66,WSW,248,13.0,14.0,12,0.00,,,0.00,meteohub,2013-06-12 22:07:00,
2013-06-12 16:12:00,91.8,37.6,30.66,East,90,2.0,14.0,15,0.00,,,0.00,meteohub,2013-06-12 22:12:00,
2013-06-12 16:17:00,93.2,36.9,30.67,SW,225,5.0,14.0,14,0.00,,,0.00,meteohub,2013-06-12 22:17:00,
2013-06-12 16:22:00,93.7,37.4,30.67,West,270,2.0,14.0,14,0.00,,,0.00,meteohub,2013-06-12 22:22:00,
2013-06-12 16:28:00,94.1,37.6,30.66,South,180,4.0,8.0,14,0.00,,,0.00,meteohub,2013-06-12 22:28:00,
2013-06-12 16:33:00,94.3,37.8,30.66,West,270,3.0,7.0,14,0.00,,,0.00,meteohub,2013-06-12 22:33:00,
2013-06-12 16:38:00,94.3,37.8,30.66,NW,315,4.0,7.0,14,0.00,,,0.00,meteohub,2013-06-12 22:38:00,
2013-06-12 16:43:00,94.3,37.8,30.66,NE,45,2.0,10.0,14,0.00,,,0.00,meteohub,2013-06-12 22:43:00,
2013-06-12 16:48:00,94.3,37.8,30.66,NW,315,3.0,10.0,14,0.00,,,0.00,meteohub,2013-06-12 22:48:00,
2013-06-12 16:53:00,94.1,37.6,30.66,SW,225,5.0,10.0,14,0.00,,,0.00,meteohub,2013-06-12 22:53:00,
2013-06-12 16:58:00,93.6,37.2,30.66,East,90,4.0,8.0,14,0.00,,,0.00,meteohub,2013-06-12 22:58:00,
2013-06-12 17:03:00,92.8,38.5,30.66,NW,315,4.0,8.0,15,0.00,,,0.00,meteohub,2013-06-12 23:03:00,
2013-06-12 17:09:00,92.1,37.8,30.66,SW,225,8.0,8.0,15,0.00,,,0.00,meteohub,2013-06-12 23:09:00,
2013-06-12 17:14:00,92.1,37.8,30.65,NE,45,8.0,8.0,15,0.00,,,0.00,meteohub,2013-06-12 23:14:00,
2013-06-12 17:19:00,91.9,37.8,30.66,SW,225,1.0,11.0,15,0.00,,,0.00,meteohub,2013-06-12 23:19:00,
2013-06-12 17:24:00,91.8,37.6,30.66,NW,315,8.0,11.0,15,0.00,,,0.00,meteohub,2013-06-12 23:24:00,
2013-06-12 17:29:00,91.4,37.2,30.66,West,270,6.0,11.0,15,0.00,,,0.00,meteohub,2013-06-12 23:29:00,
2013-06-12 17:34:00,90.9,31.3,30.65,East,90,2.0,8.0,12,0.00,,,0.00,meteohub,2013-06-12 23:34:00,
2013-06-12 17:39:00,90.9,31.3,30.66,SE,135,8.0,11.0,12,0.00,,,0.00,meteohub,2013-06-12 23:39:00,
2013-06-12 17:45:00,90.1,30.7,30.65,SW,225,3.0,14.0,12,0.00,,,0.00,meteohub,2013-06-12 23:45:00,
2013-06-12 17:50:00,90.0,30.6,30.65,SW,225,7.0,14.0,12,0.00,,,0.00,meteohub,2013-06-12 23:50:00,
2013-06-12 17:55:00,89.4,32.2,30.65,East,90,5.0,14.0,13,0.00,,,0.00,meteohub,2013-06-12 23:55:00,
2013-06-12 18:00:00,89.2,32.0,30.65,NW,315,2.0,7.0,13,0.00,,,0.00,meteohub,2013-06-13 00:00:00,
2013-06-12 18:05:00,89.2,32.0,30.65,NW,315,2.0,7.0,13,0.00,,,0.00,meteohub,2013-06-13 00:05:00,
2013-06-12 18:10:00,88.9,31.6,30.65,NW,315,6.0,7.0,13,0.00,,,0.00,meteohub,2013-06-13 00:10:00,
2013-06-12 18:15:00,88.9,31.6,30.65,SW,225,5.0,6.0,13,0.00,,,0.00,meteohub,2013-06-13 00:15:00,
2013-06-12 18:20:00,88.3,31.3,30.66,South,180,2.0,6.0,13,0.00,,,0.00,meteohub,2013-06-13 00:20:00,
2013-06-12 18:25:00,87.6,32.5,30.66,SW,225,4.0,6.0,14,0.00,,,0.00,meteohub,2013-06-13 00:25:00,
2013-06-12 18:31:00,87.3,32.2,30.66,SW,225,4.0,5.0,14,0.00,,,0.00,meteohub,2013-06-13 00:31:00,
2013-06-12 18:36:00,87.1,32.2,30.66,SW,225,4.0,7.0,14,0.00,,,0.00,meteohub,2013-06-13 00:36:00,
2013-06-12 18:41:00,86.9,32.0,30.66,South,180,3.0,7.0,14,0.00,,,0.00,meteohub,2013-06-13 00:41:00,
2013-06-12 18:46:00,86.9,32.0,30.66,West,270,6.0,11.0,14,0.00,,,0.00,meteohub,2013-06-13 00:46:00,
2013-06-12 18:51:00,86.7,31.8,30.66,SW,225,2.0,11.0,14,0.00,,,0.00,meteohub,2013-06-13 00:51:00,
2013-06-12 18:56:00,86.4,31.5,30.66,SW,225,2.0,11.0,14,0.00,,,0.00,meteohub,2013-06-13 00:56:00,
2013-06-12 19:01:00,86.2,31.5,30.66,SW,225,10.0,10.0,14,0.00,,,0.00,meteohub,2013-06-13 01:01:00,
2013-06-12 19:06:00,86.0,31.3,30.66,SW,225,2.0,10.0,14,0.00,,,0.00,meteohub,2013-06-13 01:06:00,
2013-06-12 19:11:00,86.0,31.3,30.66,SW,225,2.0,10.0,14,0.00,,,0.00,meteohub,2013-06-13 01:11:00,
2013-06-12 19:16:00,85.5,32.5,30.66,SW,225,2.0,10.0,15,0.00,,,0.00,meteohub,2013-06-13 01:16:00,
2013-06-12 19:22:00,84.7,33.6,30.66,South,180,1.0,5.0,16,0.00,,,0.00,meteohub,2013-06-13 01:22:00,
2013-06-12 19:27:00,83.8,34.3,30.66,SW,225,2.0,4.0,17,0.00,,,0.00,meteohub,2013-06-13 01:27:00,
2013-06-12 19:32:00,82.9,33.6,30.66,West,270,1.0,4.0,17,0.00,,,0.00,meteohub,2013-06-13 01:32:00,
2013-06-12 19:37:00,82.2,26.4,30.67,SW,225,1.0,3.0,13,0.00,,,0.00,meteohub,2013-06-13 01:37:00,
2013-06-12 19:42:00,81.7,27.9,30.66,SW,225,0.0,4.0,14,0.00,,,0.00,meteohub,2013-06-13 01:42:00,
2013-06-12 19:47:00,80.8,28.8,30.67,SW,225,1.0,4.0,15,0.00,,,0.00,meteohub,2013-06-13 01:47:00,
2013-06-12 19:52:00,79.5,33.6,30.67,West,270,2.0,2.0,19,0.00,,,0.00,meteohub,2013-06-13 01:52:00,
2013-06-12 19:57:00,78.3,34.0,30.67,South,180,4.0,4.0,20,0.00,,,0.00,meteohub,2013-06-13 01:57:00,
2013-06-12 20:02:00,78.1,31.1,30.67,West,270,1.0,4.0,18,0.00,,,0.00,meteohub,2013-06-13 02:02:00,
2013-06-12 20:07:00,78.3,29.8,30.67,SW,225,1.0,4.0,17,0.00,,,0.00,meteohub,2013-06-13 02:07:00,
2013-06-12 20:12:00,77.5,30.7,30.67,West,270,2.0,4.0,18,0.00,,,0.00,meteohub,2013-06-13 02:12:00,
2013-06-12 20:18:00,76.3,32.2,30.68,West,270,2.0,2.0,20,0.00,,,0.00,meteohub,2013-06-13 02:18:00,
2013-06-12 20:23:00,75.2,32.5,30.67,West,270,2.0,2.0,21,0.00,,,0.00,meteohub,2013-06-13 02:23:00,
2013-06-12 20:28:00,74.1,31.6,30.68,SW,225,1.0,2.0,21,0.00,,,0.00,meteohub,2013-06-13 02:28:00,
2013-06-12 20:33:00,73.2,27.1,30.68,SW,225,2.0,2.0,18,0.00,,,0.00,meteohub,2013-06-13 02:33:00,
2013-06-12 20:38:00,72.5,26.6,30.68,SW,225,2.0,2.0,18,0.00,,,0.00,meteohub,2013-06-13 02:38:00,
2013-06-12 20:43:00,71.8,29.7,30.68,West,270,2.0,2.0,21,0.00,,,0.00,meteohub,2013-06-13 02:43:00,
2013-06-12 20:48:00,70.5,30.9,30.68,West,270,1.0,2.0,23,0.00,,,0.00,meteohub,2013-06-13 02:48:00,
2013-06-12 20:53:00,69.4,31.1,30.68,West,270,2.0,2.0,24,0.00,,,0.00,meteohub,2013-06-13 02:53:00,
2013-06-12 20:59:00,69.1,28.6,30.69,South,180,2.0,2.0,22,0.00,,,0.00,meteohub,2013-06-13 02:59:00,
2013-06-12 21:04:00,69.1,30.7,30.69,West,270,2.0,2.0,24,0.00,,,0.00,meteohub,2013-06-13 03:04:00,
2013-06-12 21:09:00,68.9,30.6,30.69,SW,225,2.0,3.0,24,0.00,,,0.00,meteohub,2013-06-13 03:09:00,
2013-06-12 21:14:00,69.3,28.8,30.69,SW,225,0.0,3.0,22,0.00,,,0.00,meteohub,2013-06-13 03:14:00,
2013-06-12 21:19:00,68.7,30.4,30.70,SW,225,1.0,2.0,24,0.00,,,0.00,meteohub,2013-06-13 03:19:00,
2013-06-12 21:25:00,68.0,28.8,30.70,West,270,2.0,2.0,23,0.00,,,0.00,meteohub,2013-06-13 03:25:00,
2013-06-12 21:30:00,68.2,32.0,30.70,West,270,2.0,2.0,26,0.00,,,0.00,meteohub,2013-06-13 03:30:00,
2013-06-12 21:35:00,67.5,30.4,30.71,SW,225,1.0,3.0,25,0.00,,,0.00,meteohub,2013-06-13 03:35:00,
2013-06-12 21:40:00,66.9,30.9,30.71,SW,225,0.0,3.0,26,0.00,,,0.00,meteohub,2013-06-13 03:40:00,
2013-06-12 21:45:00,66.2,33.1,30.71,SW,225,2.0,2.0,29,0.00,,,0.00,meteohub,2013-06-13 03:45:00,
2013-06-12 21:50:00,65.3,31.3,30.71,SW,225,0.0,2.0,28,0.00,,,0.00,meteohub,2013-06-13 03:50:00,
2013-06-12 21:55:00,64.8,30.9,30.71,SW,225,1.0,2.0,28,0.00,,,0.00,meteohub,2013-06-13 03:55:00,
2013-06-12 22:00:00,64.6,29.8,30.71,SW,225,2.0,2.0,27,0.00,,,0.00,meteohub,2013-06-13 04:00:00,
2013-06-12 22:01:00,64.6,29.8,30.71,SW,225,2.0,2.0,27,0.00,,,0.00,meteohub,2013-06-13 04:01:00,
2013-06-12 22:02:00,64.6,29.8,30.71,SW,225,2.0,2.0,27,0.00,,,0.00,meteohub,2013-06-13 04:02:00,
2013-06-12 22:04:00,64.6,29.8,30.71,SW,225,2.0,2.0,27,0.00,,,0.00,meteohub,2013-06-13 04:04:00,
2013-06-12 22:06:00,64.6,29.8,30.71,SW,225,2.0,2.0,27,0.00,,,0.00,meteohub,2013-06-13 04:06:00,
2013-06-12 22:11:00,64.4,29.7,30.71,West,270,2.0,2.0,27,0.00,,,0.00,meteohub,2013-06-13 04:11:00,
2013-06-12 22:16:00,64.6,32.4,30.72,SE,135,1.0,2.0,30,0.00,,,0.00,meteohub,2013-06-13 04:16:00,
2013-06-12 22:22:00,64.2,29.5,30.72,West,270,2.0,2.0,27,0.00,,,0.00,meteohub,2013-06-13 04:22:00,
2013-06-12 22:27:00,63.3,31.3,30.72,West,270,1.0,2.0,30,0.00,,,0.00,meteohub,2013-06-13 04:27:00,
2013-06-12 22:32:00,62.6,28.2,30.72,SW,225,2.0,2.0,27,0.00,,,0.00,meteohub,2013-06-13 04:32:00,
2013-06-12 22:37:00,62.4,29.7,30.72,SW,225,0.0,2.0,29,0.00,,,0.00,meteohub,2013-06-13 04:37:00,
2013-06-12 22:42:00,62.2,27.9,30.72,SW,225,1.0,2.0,27,0.00,,,0.00,meteohub,2013-06-13 04:42:00,
2013-06-12 22:47:00,62.2,27.9,30.72,West,270,1.0,2.0,27,0.00,,,0.00,meteohub,2013-06-13 04:47:00,
2013-06-12 22:52:00,61.7,30.7,30.72,West,270,2.0,2.0,31,0.00,,,0.00,meteohub,2013-06-13 04:52:00,
2013-06-12 22:57:00,61.7,27.3,30.72,South,180,0.0,2.0,27,0.00,,,0.00,meteohub,2013-06-13 04:57:00,
2013-06-12 23:02:00,61.5,31.5,30.72,West,270,1.0,2.0,32,0.00,,,0.00,meteohub,2013-06-13 05:02:00,
2013-06-12 23:07:00,60.8,30.7,30.72,West,270,0.0,2.0,32,0.00,,,0.00,meteohub,2013-06-13 05:07:00,
2013-06-12 23:13:00,60.1,31.6,30.72,West,270,2.0,2.0,34,0.00,,,0.00,meteohub,2013-06-13 05:13:00,
2013-06-12 23:18:00,60.3,31.1,30.72,SW,225,0.0,2.0,33,0.00,,,0.00,meteohub,2013-06-13 05:18:00,
2013-06-12 23:23:00,59.5,31.1,30.72,SW,225,0.0,2.0,34,0.00,,,0.00,meteohub,2013-06-13 05:23:00,
2013-06-12 23:28:00,59.0,30.7,30.73,West,270,0.0,2.0,34,0.00,,,0.00,meteohub,2013-06-13 05:28:00,
2013-06-12 23:33:00,59.0,30.7,30.72,SW,225,0.0,1.0,34,0.00,,,0.00,meteohub,2013-06-13 05:33:00,
2013-06-12 23:38:00,58.3,32.2,30.72,West,270,2.0,0.0,37,0.00,,,0.00,meteohub,2013-06-13 05:38:00,
2013-06-12 23:43:00,57.9,31.1,30.73,SW,225,1.0,2.0,36,0.00,,,0.00,meteohub,2013-06-13 05:43:00,
2013-06-12 23:48:00,57.7,31.6,30.73,SW,225,0.0,2.0,37,0.00,,,0.00,meteohub,2013-06-13 05:48:00,
2013-06-12 23:53:00,57.4,31.3,30.72,SW,225,2.0,2.0,37,0.00,,,0.00,meteohub,2013-06-13 05:53:00,